map of ZND home
ZND - Airport
Location
City:  Zinder, Niger
ICAO:DRZR
IATA:ZND

Details
Type:Airport (Aerodrome, Airfield)
Use:Public/Civil
Latitude:1346'44"N (13.778997)
Longitude:859'02"E (8.983761)
Datum:WGS 1984
Elevation:1516 ft (462 m)
Variation:0.27E (WMM2015 magnetic declination)
0.09 annual change
Runways:1
Longest:5988 × 98 ft (1825 × 30 m), paved

Time
Time Zone:UTC+1
Local Time:

Weather
METAR:DRZR 241200Z 26010KT 9999 RERA FEW040 25/20 Q1015
TAF:DRZR 241100Z 2412/2512 14010KT 9999 TS FEW040CB
BECMG 2416/2418 22008KT CAVOK

Related Locations
Nearby:
Farthest:FGI: 12400 mi / 19956 km
Apia [Fagali'i], WS

Find:

   beyond  
but within

Other Information
Maps:
NOTAMs:
Links:
Sources:

  
  • flag of Niger
  

Sectional Chart

Flight Planning
at skyvector.com

Satellite Image

Google Maps Satellite view

 

Copyright © 2004-2018 Karl L. Swartz. All rights reserved.
The Great Circle Mapper name and logo are trademarks of the Great Circle Mapper.
All other trademarks mentioned herein belong to their respective owners.
Please see credits for attibutions and further copyright information.

  Follow gcmap on Facebook Follow gcmap on Twitter Follow gcmap on Google+ GCmap on LinkedIn

hCard Microformat

Geo Microformat